Time,TemperatureF,DewpointF,PressureIn,WindDirection,WindDirectionDegrees,WindSpeedMPH,WindSpeedGustMPH,Humidity,HourlyPrecipIn,Conditions,Clouds,dailyrainin,SolarRadiationWatts/m^2,SoftwareType,DateUTC
2013-02-13 00:02:00,37.0,28.0,-100.00,SW,221,3.0,9.0,70,0.00,,,0.06,0.000000,,2013-02-13 05:02:00,
2013-02-13 00:12:00,37.0,28.0,-100.00,SW,221,3.0,9.0,70,0.00,,,0.06,0.000000,,2013-02-13 05:12:00,
2013-02-13 00:22:00,37.0,28.0,-100.00,SW,221,3.0,9.0,70,0.00,,,0.06,0.000000,,2013-02-13 05:22:00,
2013-02-13 00:32:00,37.0,28.0,-100.00,SW,221,3.0,9.0,70,0.00,,,0.06,0.000000,,2013-02-13 05:32:00,
2013-02-13 01:02:00,36.0,27.0,-100.00,SW,233,2.0,7.0,69,0.00,,,0.06,0.000000,,2013-02-13 06:02:00,
2013-02-13 01:11:00,36.0,27.0,-100.00,SW,233,2.0,7.0,69,0.00,,,0.06,0.000000,,2013-02-13 06:11:00,
2013-02-13 01:22:00,36.0,27.0,-100.00,SW,233,2.0,7.0,69,0.00,,,0.06,0.000000,,2013-02-13 06:22:00,
2013-02-13 01:32:00,36.0,27.0,-100.00,SW,233,2.0,7.0,69,0.00,,,0.06,0.000000,,2013-02-13 06:32:00,
2013-02-13 02:02:00,34.0,28.0,-100.00,WSW,238,3.0,6.0,78,0.00,,,0.06,0.000000,,2013-02-13 07:02:00,
2013-02-13 02:11:00,34.0,28.0,-100.00,WSW,238,3.0,6.0,78,0.00,,,0.06,0.000000,,2013-02-13 07:11:00,
2013-02-13 02:22:00,34.0,28.0,-100.00,WSW,238,3.0,6.0,78,0.00,,,0.06,0.000000,,2013-02-13 07:22:00,
2013-02-13 02:32:00,34.0,28.0,-100.00,WSW,238,3.0,6.0,78,0.00,,,0.06,0.000000,,2013-02-13 07:32:00,
2013-02-13 03:01:00,34.0,29.0,-100.00,SW,230,4.0,7.0,81,0.00,,,0.06,0.000000,,2013-02-13 08:01:00,
2013-02-13 03:11:00,34.0,29.0,-100.00,SW,230,4.0,7.0,81,0.00,,,0.06,0.000000,,2013-02-13 08:11:00,
2013-02-13 03:21:00,34.0,29.0,-100.00,SW,230,4.0,7.0,81,0.00,,,0.06,0.000000,,2013-02-13 08:21:00,
2013-02-13 03:32:00,34.0,29.0,-100.00,SW,230,4.0,7.0,81,0.00,,,0.06,0.000000,,2013-02-13 08:32:00,
2013-02-13 04:02:00,35.0,28.0,-100.00,SW,236,4.0,10.0,75,0.00,,,0.06,0.000000,,2013-02-13 09:02:00,
2013-02-13 04:11:00,35.0,28.0,-100.00,SW,236,4.0,10.0,75,0.00,,,0.06,0.000000,,2013-02-13 09:11:00,
2013-02-13 04:21:00,35.0,28.0,-100.00,SW,236,4.0,10.0,75,0.00,,,0.06,0.000000,,2013-02-13 09:21:00,
2013-02-13 04:32:00,35.0,28.0,-100.00,SW,236,4.0,10.0,75,0.00,,,0.06,0.000000,,2013-02-13 09:32:00,
2013-02-13 04:52:00,34.0,28.0,-100.00,SW,231,4.0,9.0,77,0.00,,,0.01,0.000000,,2013-02-13 09:52:00,
2013-02-13 05:01:00,34.0,28.0,-100.00,SW,231,4.0,9.0,77,0.00,,,0.01,0.000000,,2013-02-13 10:01:00,
2013-02-13 05:11:00,34.0,28.0,-100.00,SW,231,4.0,9.0,77,0.00,,,0.01,0.000000,,2013-02-13 10:11:00,
2013-02-13 05:21:00,34.0,28.0,-100.00,SW,231,4.0,9.0,77,0.00,,,0.01,0.000000,,2013-02-13 10:21:00,
2013-02-13 05:32:00,34.0,28.0,-100.00,SW,231,4.0,9.0,77,0.00,,,0.01,0.000000,,2013-02-13 10:32:00,
2013-02-13 06:01:00,34.0,27.0,-100.00,SW,222,4.0,7.0,75,0.00,,,0.00,0.000000,,2013-02-13 11:01:00,
2013-02-13 06:11:00,34.0,27.0,-100.00,SW,222,4.0,7.0,75,0.00,,,0.00,0.000000,,2013-02-13 11:11:00,
2013-02-13 06:22:00,34.0,27.0,-100.00,SW,222,4.0,7.0,75,0.00,,,0.00,0.000000,,2013-02-13 11:22:00,
2013-02-13 06:32:00,34.0,27.0,-100.00,SW,222,4.0,7.0,75,0.00,,,0.00,0.000000,,2013-02-13 11:32:00,
2013-02-13 06:52:00,34.0,26.0,-100.00,West,268,2.0,5.0,73,0.00,,,0.00,0.000000,,2013-02-13 11:52:00,
2013-02-13 07:02:00,34.0,26.0,-100.00,West,268,2.0,5.0,73,0.00,,,0.00,0.000000,,2013-02-13 12:02:00,
2013-02-13 07:11:00,34.0,26.0,-100.00,West,268,2.0,5.0,73,0.00,,,0.00,0.000000,,2013-02-13 12:11:00,
2013-02-13 07:22:00,34.0,26.0,-100.00,West,268,2.0,5.0,73,0.00,,,0.00,0.000000,,2013-02-13 12:22:00,
2013-02-13 07:32:00,34.0,26.0,-100.00,West,268,2.0,5.0,73,0.00,,,0.00,0.000000,,2013-02-13 12:32:00,
2013-02-13 08:02:00,35.0,27.0,-100.00,SW,220,2.0,5.0,71,0.00,,,0.00,23.000000,,2013-02-13 13:02:00,
2013-02-13 08:11:00,35.0,27.0,-100.00,SW,220,2.0,5.0,71,0.00,,,0.00,23.000000,,2013-02-13 13:11:00,
2013-02-13 08:21:00,35.0,27.0,-100.00,SW,220,2.0,5.0,71,0.00,,,0.00,23.000000,,2013-02-13 13:21:00,
2013-02-13 08:32:00,35.0,27.0,-100.00,SW,220,2.0,5.0,71,0.00,,,0.00,23.000000,,2013-02-13 13:32:00,
2013-02-13 09:01:00,38.0,27.0,-100.00,SW,232,3.0,7.0,64,0.00,,,0.00,108.000000,,2013-02-13 14:01:00,
2013-02-13 09:11:00,38.0,27.0,-100.00,SW,232,3.0,7.0,64,0.00,,,0.00,108.000000,,2013-02-13 14:11:00,
2013-02-13 09:21:00,38.0,27.0,-100.00,SW,232,3.0,7.0,64,0.00,,,0.00,108.000000,,2013-02-13 14:21:00,
2013-02-13 09:32:00,38.0,27.0,-100.00,SW,232,3.0,7.0,64,0.00,,,0.00,108.000000,,2013-02-13 14:32:00,
2013-02-13 10:02:00,43.0,28.0,-100.00,West,271,4.0,8.0,54,0.00,,,0.00,329.000000,,2013-02-13 15:02:00,
2013-02-13 10:11:00,43.0,28.0,-100.00,West,271,4.0,8.0,54,0.00,,,0.00,329.000000,,2013-02-13 15:11:00,
2013-02-13 10:21:00,43.0,28.0,-100.00,West,271,4.0,8.0,54,0.00,,,0.00,329.000000,,2013-02-13 15:21:00,
2013-02-13 10:32:00,43.0,28.0,-100.00,West,271,4.0,8.0,54,0.00,,,0.00,329.000000,,2013-02-13 15:32:00,
2013-02-13 11:02:00,46.0,25.0,-100.00,NNW,329,3.0,9.0,44,0.00,,,0.00,504.000000,,2013-02-13 16:02:00,
2013-02-13 12:02:00,46.0,-99.9,-100.00,NNW,332,4.0,-999.0,-999,-99.99,,,0.00,,,2013-02-13 17:02:00,
2013-02-13 13:02:00,48.0,27.0,-100.00,North,10,3.0,8.0,44,-99.99,,,0.00,619.000000,,2013-02-13 18:02:00,
2013-02-13 14:01:00,45.0,27.0,-100.00,WSW,251,3.0,9.0,48,-99.99,,,0.00,580.000000,,2013-02-13 19:01:00,
2013-02-13 14:11:00,45.0,27.0,-100.00,WSW,251,3.0,9.0,48,-99.99,,,0.00,580.000000,,2013-02-13 19:11:00,
2013-02-13 14:21:00,45.0,27.0,-100.00,WSW,251,3.0,9.0,48,-99.99,,,0.00,580.000000,,2013-02-13 19:21:00,
2013-02-13 14:32:00,45.0,27.0,-100.00,WSW,251,3.0,9.0,48,-99.99,,,0.00,580.000000,,2013-02-13 19:32:00,
2013-02-13 15:02:00,42.0,28.0,-100.00,WSW,239,5.0,11.0,57,0.00,,,0.00,479.000000,,2013-02-13 20:02:00,
2013-02-13 15:11:00,42.0,28.0,-100.00,WSW,239,5.0,11.0,57,0.00,,,0.00,479.000000,,2013-02-13 20:11:00,
2013-02-13 15:22:00,42.0,28.0,-100.00,WSW,239,5.0,11.0,57,0.00,,,0.00,479.000000,,2013-02-13 20:22:00,
2013-02-13 15:32:00,42.0,28.0,-100.00,WSW,239,5.0,11.0,57,0.00,,,0.00,479.000000,,2013-02-13 20:32:00,
2013-02-13 16:02:00,41.0,29.0,-100.00,SW,231,5.0,11.0,63,0.00,,,0.00,318.000000,,2013-02-13 21:02:00,
2013-02-13 16:11:00,41.0,29.0,-100.00,SW,231,5.0,11.0,63,0.00,,,0.00,318.000000,,2013-02-13 21:11:00,
2013-02-13 16:21:00,41.0,29.0,-100.00,SW,231,5.0,11.0,63,0.00,,,0.00,318.000000,,2013-02-13 21:21:00,
2013-02-13 16:32:00,41.0,29.0,-100.00,SW,231,5.0,11.0,63,0.00,,,0.00,318.000000,,2013-02-13 21:32:00,
2013-02-13 17:02:00,37.0,28.0,-100.00,SW,225,4.0,10.0,71,0.00,,,0.00,60.000000,,2013-02-13 22:02:00,
2013-02-13 17:11:00,37.0,28.0,-100.00,SW,225,4.0,10.0,71,0.00,,,0.00,60.000000,,2013-02-13 22:11:00,
2013-02-13 17:21:00,37.0,28.0,-100.00,SW,225,4.0,10.0,71,0.00,,,0.00,60.000000,,2013-02-13 22:21:00,
2013-02-13 17:32:00,37.0,28.0,-100.00,SW,225,4.0,10.0,71,0.00,,,0.00,60.000000,,2013-02-13 22:32:00,
2013-02-13 18:02:00,32.0,-99.9,-100.00,SSW,209,4.0,-999.0,-999,0.00,,,0.00,,,2013-02-13 23:02:00,
2013-02-13 18:12:00,32.0,-99.9,-100.00,SSW,209,4.0,-999.0,-999,0.00,,,0.00,,,2013-02-13 23:12:00,
2013-02-13 18:22:00,32.0,-99.9,-100.00,SSW,209,4.0,-999.0,-999,0.00,,,0.00,,,2013-02-13 23:22:00,
2013-02-13 18:32:00,32.0,-99.9,-100.00,SSW,209,4.0,-999.0,-999,0.00,,,0.00,,,2013-02-13 23:32:00,
2013-02-13 19:02:00,32.0,28.0,-100.00,SSW,209,4.0,6.0,85,0.00,,,0.00,0.000000,,2013-02-14 00:02:00,
2013-02-13 19:11:00,32.0,28.0,-100.00,SSW,209,4.0,6.0,85,0.00,,,0.00,0.000000,,2013-02-14 00:11:00,
2013-02-13 19:22:00,32.0,28.0,-100.00,SSW,209,4.0,6.0,85,0.00,,,0.00,0.000000,,2013-02-14 00:22:00,
2013-02-13 19:32:00,32.0,28.0,-100.00,SSW,209,4.0,6.0,85,0.00,,,0.00,0.000000,,2013-02-14 00:32:00,
2013-02-13 20:01:00,33.0,28.0,-100.00,South,178,2.0,7.0,83,0.00,,,0.00,0.000000,,2013-02-14 01:01:00,
2013-02-13 20:11:00,33.0,28.0,-100.00,South,178,2.0,7.0,83,0.00,,,0.00,0.000000,,2013-02-14 01:11:00,
2013-02-13 20:21:00,33.0,28.0,-100.00,South,178,2.0,7.0,83,0.00,,,0.00,0.000000,,2013-02-14 01:21:00,
2013-02-13 20:32:00,33.0,28.0,-100.00,South,178,2.0,7.0,83,0.00,,,0.00,0.000000,,2013-02-14 01:32:00,
2013-02-13 21:02:00,30.0,27.0,-100.00,SSE,156,2.0,3.0,89,0.00,,,0.00,0.000000,,2013-02-14 02:02:00,
2013-02-13 21:11:00,30.0,27.0,-100.00,SSE,156,2.0,3.0,89,0.00,,,0.00,0.000000,,2013-02-14 02:11:00,
2013-02-13 21:21:00,30.0,27.0,-100.00,SSE,156,2.0,3.0,89,0.00,,,0.00,0.000000,,2013-02-14 02:21:00,
2013-02-13 21:32:00,30.0,27.0,-100.00,SSE,156,2.0,3.0,89,0.00,,,0.00,0.000000,,2013-02-14 02:32:00,
2013-02-13 22:02:00,29.0,27.0,-100.00,SSE,157,2.0,2.0,92,0.00,,,0.00,0.000000,,2013-02-14 03:02:00,
2013-02-13 22:12:00,29.0,27.0,-100.00,SSE,157,2.0,2.0,92,0.00,,,0.00,0.000000,,2013-02-14 03:12:00,
2013-02-13 22:22:00,29.0,27.0,-100.00,SSE,157,2.0,2.0,92,0.00,,,0.00,0.000000,,2013-02-14 03:22:00,
2013-02-13 22:32:00,29.0,27.0,-100.00,SSE,157,2.0,2.0,92,0.00,,,0.00,0.000000,,2013-02-14 03:32:00,
2013-02-13 23:01:00,29.0,27.0,-100.00,SE,143,1.0,2.0,92,0.00,,,0.00,0.000000,,2013-02-14 04:01:00,
2013-02-13 23:12:00,29.0,27.0,-100.00,SE,143,1.0,2.0,92,0.00,,,0.00,0.000000,,2013-02-14 04:12:00,
2013-02-13 23:21:00,29.0,27.0,-100.00,SE,143,1.0,2.0,92,0.00,,,0.00,0.000000,,2013-02-14 04:21:00,
2013-02-13 23:32:00,29.0,27.0,-100.00,SE,143,1.0,2.0,92,0.00,,,0.00,0.000000,,2013-02-14 04:32:00,